Location: La Brionne
(46.1728°N, 1.7849°E)
Time: 15:14:11
(UTC+00:00)

DOVE 4 - Visible Passes

Search period start: 20 March 2023 00:00
Search period end: 30 March 2023 00:00
Orbit: 586 x 791 km, 97.8° (Epoch: 20 March)

Date Brightness Start Highest point End Pass type
(mag) Time Alt. Az. Time Alt. Az. Time Alt. Az.
20 Mar ? 00:11:10 10° NNW 00:11:17 10° NNW 00:11:17 10° NNW visible
20 Mar ? 23:11:21 10° N 23:11:46 12° N 23:11:46 12° N visible
21 Mar ? 23:50:21 10° N 23:50:50 12° N 23:50:50 12° N visible
22 Mar ? 22:50:54 10° NNE 22:51:17 12° NNE 22:51:17 12° NNE visible
23 Mar ? 23:29:38 10° N 23:30:21 14° N 23:30:21 14° N visible
24 Mar ? 22:30:32 10° NNE 22:30:47 11° NNE 22:30:47 11° NNE visible
25 Mar ? 00:08:53 10° NNW 00:09:23 12° NNW 00:09:23 12° NNW visible
25 Mar ? 23:09:02 10° N 23:09:48 14° N 23:09:48 14° N visible
26 Mar ? 23:47:58 10° N 23:48:50 14° NNW 23:48:50 14° NNW visible
27 Mar ? 22:48:30 10° NNE 22:49:14 14° NNE 22:49:14 14° NNE visible
28 Mar ? 00:27:40 10° NNW 00:27:50 10° NNW 00:27:50 10° NNW visible
28 Mar ? 23:27:11 10° N 23:28:14 16° N 23:28:14 16° N visible
29 Mar ? 22:28:03 10° NNE 22:28:37 13° NNE 22:28:37 13° NNE visible
